Wind_Speed
26 23 22 22 20 18 17 17 16 15 18 15 17 15 13 11 9 6 4 3 4 4 5 7 9 12 15 18 21 24 24 21 22 24 25 19 15 11 19 10 7 10 11
31 30 28 27 24 22 20 17 17 15 15 14 13 9 9 10 11 6 3 2 0 2 5 7 9 12 14 16 21 23 24 22 20 20 19 17 19 20 14 14 9 10 11
35 35 33 32 27 24 22 18 17 16 14 16 14 12 15 13 14 9 8 4 3 5 7 9 10 12 15 16 19 21 23 22 19 14 13 9 9 31 9 13 17 19 16
36 38 37 35 31 27 22 19 17 18 14 17 14 15 18 15 15 13 9 7 9 10 10 11 12 13 16 17 21 21 21 19 19 18 15 11 16 16 17 22 26 22 22
36 38 39 35 32 28 25 21 18 19 17 18 17 15 16 14 15 18 13 11 13 11 13 13 13 17 19 20 22 23 21 19 17 19 20 22 20 17 17 25 32 30 25
29 34 36 34 32 28 24 22 19 19 18 14 20 15 12 11 12 15 12 12 13 12 15 16 16 20 20 21 23 24 21 19 18 22 22 21 21 22 23 24 26 27 28
2 33 35 35 32 29 24 22 18 21 19 16 16 16 14 14 10 11 8 10 6 9 14 14 16 20 20 21 22 21 21 22 22 21 21 21 21 22 20 23 27 27 30
22 20 26 29 28 26 24 25 21 21 20 18 16 15 13 10 4 4 7 9 8 5 9 14 19 21 21 21 19 19 19 19 20 22 23 23 26 23 22 23 26 29 26
16 22 20 24 24 24 26 24 23 20 21 19 17 15 16 14 11 14 15 9 7 10 12 16 20 19 18 17 15 13 13 15 17 19 18 18 19 20 18 21 22 23 23
10 7 7 11 10 28 24 25 22 15 20 19 18 17 16 15 15 14 12 11 13 14 16 17 13 11 12 15 17 19 20 20 20 20 19 15 17 17 21 24 24 23 22
5 2 2 4 4 8 26 26 19 18 19 25 22 21 18 13 14 16 14 14 13 14 15 13 15 17 19 21 22 23 24 23 21 22 25 27 30 35 33 30 30 29 29
9 10 11 15 9 15 27 27 20 21 29 25 21 17 14 13 12 11 11 12 14 15 15 17 20 22 21 21 22 22 22 22 26 32 36 37 33 19 20 20 22 24 22
14 14 16 18 24 26 28 25 26 25 21 18 15 10 7 7 8 9 10 12 14 16 18 20 20 20 20 20 21 21 23 28 32 34 26 19 19 22 23 22 16 18 19
17 16 18 21 22 23 24 22 20 16 14 12 8 5 3 5 6 8 11 14 15 17 18 18 17 19 20 19 19 23 26 29 29 21 18 19 21 22 17 18 21 19 20
21 21 22 23 24 25 24 21 19 15 11 7 4 3 2 4 7 10 11 13 16 18 18 17 17 16 16 17 20 23 28 28 27 19 19 17 17 14 17 18 18 17 19
23 22 21 21 22 22 22 20 16 11 4 3 3 2 3 6 8 10 12 15 18 16 15 14 14 15 16 19 22 26 26 27 25 23 22 20 18 24 25 24 24 22 20
25 25 23 22 20 18 16 14 11 8 6 3 1 1 3 7 9 12 14 15 14 13 12 13 15 17 18 20 21 23 27 29 27 21 22 22 22 24 27 29 28 28 27
27 25 24 22 19 16 13 12 10 7 4 1 2 5 6 8 11 13 12 11 11 11 12 13 13 15 19 19 25 29 32 30 26 24 21 18 18 19 23 27 31 33 31
26 26 23 20 17 14 12 10 8 5 2 2 4 7 9 10 10 12 10 11 12 11 12 11 15 16 18 24 29 33 31 28 27 23 20 19 19 21 25 27 25 24 23
27 25 22 21 18 15 11 8 6 3 3 3 4 8 10 6 10 11 10 11 10 11 12 14 14 14 18 23 29 27 28 31 28 26 24 22 20 21 21 23 25 25 26
28 26 23 20 16 13 10 7 5 2 1 2 5 8 8 6 9 11 10 10 12 15 17 17 11 15 19 19 21 25 30 26 26 26 23 20 21 23 22 21 22 24 24
27 23 21 17 14 12 10 8 4 0 3 4 5 5 8 9 7 10 9 13 17 18 21 15 14 17 17 18 21 28 23 22 23 23 21 22 22 23 23 22 21 21 21
26 24 25 24 19 15 11 6 2 1 2 3 5 5 9 6 8 8 11 15 18 19 21 18 19 20 18 19 29 30 24 24 22 20 19 19 22 23 23 23 21 21 21
28 26 23 20 17 12 7 3 1 1 1 2 3 6 7 7 8 9 13 15 17 17 19 19 22 24 22 26 34 30 27 25 24 23 21 23 22 22 23 24 23 22 21
26 21 18 16 13 9 5 1 1 1 2 1 5 6 5 7 8 11 11 12 14 16 18 18 22 25 24 28 30 24 25 24 24 24 22 23 25 26 27 26 26 27 24
25 22 18 15 12 7 4 0 1 2 1 3 5 4 3 4 9 12 6 9 12 14 14 15 21 21 21 29 25 21 23 19 23 22 23 24 26 27 27 26 26 28 29
Wind_Direction
193 194 184 197 204 209 208 206 206 191 181 175 165 160 152 171 199 234 191 132 92 69 32 27 18 7 10 7 6 7 4 359 352 347 350 355 358 8 343 16 15 12 13
189 191 186 193 203 209 216 219 215 207 197 180 159 155 162 189 225 242 231 179 341 15 354 354 357 356 360 357 356 360 357 354 356 353 346 344 348 326 350 339 328 346 355
190 188 187 193 198 210 213 219 221 216 208 175 166 189 192 205 215 233 269 230 276 302 319 330 343 344 344 348 350 354 350 345 344 357 350 341 320 322 326 318 310 315 319
194 194 192 193 201 210 214 220 223 219 217 180 182 197 196 212 235 247 253 262 296 304 313 320 328 332 337 340 346 348 344 337 334 331 331 318 310 334 325 301 309 307 315
199 198 198 204 207 207 211 214 219 218 221 201 194 209 217 234 242 237 241 255 285 302 315 317 322 328 333 337 338 338 340 335 330 330 327 327 320 305 306 312 308 309 313
201 206 205 203 202 204 206 209 212 215 220 217 196 207 212 222 221 218 241 282 296 314 310 312 317 324 326 330 332 333 335 339 331 327 325 328 326 317 308 304 304 310 311
102 196 195 197 196 201 208 207 211 205 216 219 211 209 210 239 237 250 280 311 291 287 291 298 309 318 322 327 330 332 335 334 331 325 314 313 315 311 304 298 302 306 304
64 181 195 197 202 207 209 204 205 204 208 217 218 213 214 223 236 229 240 234 240 225 268 289 301 311 323 329 332 329 327 328 326 323 316 308 309 303 293 293 302 300 301
76 83 189 198 210 211 211 212 206 201 201 213 209 209 213 220 220 234 243 214 248 267 281 295 308 318 331 336 327 322 319 313 308 310 308 307 297 296 294 290 292 300 298
90 97 91 89 198 214 215 209 207 194 191 205 196 189 200 210 225 243 250 262 271 277 293 308 321 319 306 301 304 307 306 306 302 303 304 304 314 317 332 333 324 321 311
66 38 338 334 20 180 210 197 182 177 189 178 177 182 189 207 230 253 264 273 285 292 297 298 296 298 303 304 308 311 311 309 309 308 310 312 313 315 313 314 312 311 323
73 66 69 68 81 131 179 167 171 165 163 167 171 174 187 214 246 260 265 278 293 297 296 295 299 305 307 311 316 317 313 319 324 322 321 317 318 328 333 325 318 316 320
99 96 91 89 107 125 144 149 145 148 155 166 174 172 203 244 256 262 281 292 294 296 303 311 313 313 315 320 318 314 327 332 330 330 333 348 343 339 333 326 331 328 322
111 108 106 100 104 110 116 123 130 141 151 161 167 176 212 256 271 286 297 301 308 315 320 319 317 319 325 324 319 327 333 332 338 345 337 345 339 335 326 330 324 325 321
120 118 117 110 111 114 118 123 127 133 141 137 133 134 234 282 297 307 311 315 317 319 322 320 326 332 331 325 325 333 333 338 341 339 330 327 337 320 336 334 329 330 325
128 127 126 124 124 126 127 128 127 130 152 141 139 161 269 295 319 320 315 316 321 332 338 348 345 340 335 330 329 329 334 337 338 329 319 310 316 309 310 311 312 319 323
135 133 131 133 135 136 143 140 147 158 164 150 123 312 318 318 324 321 321 330 340 348 359 352 349 345 337 330 329 329 331 336 335 323 321 317 315 319 318 314 310 307 309
140 139 141 141 142 148 152 152 158 157 154 148 337 337 333 331 325 326 337 343 353 3 353 357 350 343 337 333 327 329 335 339 339 333 331 334 327 327 322 321 318 320 321
146 146 148 147 148 153 156 158 151 148 141 38 352 333 330 336 330 341 353 358 357 351 349 339 341 343 340 335 332 331 335 340 341 345 347 344 334 326 325 328 336 338 341
152 151 150 147 146 148 166 166 153 142 72 25 334 318 335 344 333 348 1 360 355 339 331 332 332 326 324 323 322 331 341 342 345 348 348 346 341 344 344 337 335 333 337
153 155 156 155 156 169 186 168 157 119 93 303 302 318 340 331 347 359 10 347 330 328 334 331 323 322 324 329 329 342 339 343 346 352 358 5 353 350 348 345 342 338 330
157 163 159 152 155 175 195 178 159 189 323 305 316 328 338 355 8 6 350 331 332 344 350 352 345 347 346 345 349 346 353 353 352 355 359 358 356 355 350 347 344 340 339
159 162 159 158 164 182 205 202 168 273 324 310 350 334 342 18 14 360 339 334 346 356 359 3 0 359 1 360 356 354 358 357 0 358 357 352 356 353 350 351 347 345 347
165 172 176 177 179 194 196 186 167 295 10 35 332 328 356 22 15 341 335 348 354 354 357 359 1 0 1 1 356 353 357 355 355 356 353 354 351 351 353 356 357 355 351
172 183 181 177 178 182 185 193 7 34 104 268 321 345 32 19 343 329 340 356 351 353 354 355 356 354 357 358 349 350 352 350 345 345 347 350 352 353 354 355 356 354 351
172 174 180 183 184 192 196 175 28 20 52 309 350 356 20 351 324 333 0 348 342 345 350 354 350 348 351 348 343 348 347 342 342 346 353 354 353 352 351 353 353 353 356
Height
1562 1565 1570 1572 1574 1577 1580 1582 1584 1585 1587 1588 1589 1591 1592 1593 1593 1594 1594 1594 1594 1594 1593 1593 1591 1589 1587 1585 1583 1581 1579 1577 1574 1570 1568 1567 1567 1565 1563 1561 1559 1557 1556
1556 1560 1564 1566 1570 1573 1577 1579 1582 1584 1585 1588 1589 1591 1592 1593 1592 1593 1593 1594 1593 1593 1593 1592 1590 1588 1586 1585 1582 1580 1578 1576 1573 1570 1566 1562 1561 1561 1561 1560 1557 1556 1554
1548 1554 1558 1560 1564 1568 1572 1576 1579 1582 1585 1587 1589 1591 1591 1592 1592 1592 1592 1593 1592 1592 1591 1590 1588 1586 1585 1583 1581 1579 1576 1574 1573 1572 1570 1565 1562 1556 1557 1556 1554 1552 1551
1545 1547 1552 1556 1559 1563 1568 1572 1575 1579 1583 1586 1588 1590 1590 1591 1591 1590 1591 1591 1590 1590 1589 1588 1586 1585 1583 1581 1579 1577 1574 1572 1571 1570 1569 1569 1565 1559 1551 1550 1550 1549 1547
1541 1544 1548 1551 1555 1560 1564 1569 1572 1576 1581 1584 1586 1588 1589 1589 1589 1588 1588 1588 1588 1588 1587 1586 1584 1583 1580 1578 1576 1574 1573 1570 1569 1566 1565 1563 1562 1560 1556 1548 1544 1544 1544
1538 1539 1544 1549 1552 1558 1562 1566 1570 1574 1579 1582 1585 1587 1589 1587 1588 1587 1587 1587 1586 1585 1583 1582 1582 1580 1578 1576 1574 1572 1570 1568 1566 1564 1562 1560 1558 1555 1552 1548 1544 1541 1539
1536 1539 1542 1547 1552 1555 1559 1564 1567 1571 1576 1579 1583 1586 1587 1587 1587 1587 1586 1584 1584 1583 1582 1581 1579 1578 1576 1574 1571 1569 1567 1565 1563 1561 1559 1557 1555 1552 1549 1545 1541 1538 1536
1541 1542 1544 1547 1549 1552 1555 1560 1564 1569 1573 1576 1580 1583 1585 1587 1586 1585 1584 1584 1583 1582 1581 1580 1578 1576 1574 1571 1569 1567 1564 1562 1560 1557 1555 1552 1550 1548 1545 1542 1538 1533 1531
1543 1547 1550 1551 1548 1549 1552 1556 1561 1565 1569 1573 1577 1580 1581 1583 1584 1583 1583 1583 1581 1580 1579 1578 1576 1574 1572 1569 1566 1563 1561 1558 1555 1552 1549 1547 1543 1540 1538 1535 1533 1529 1524
1546 1546 1548 1550 1549 1550 1551 1554 1559 1563 1568 1572 1575 1576 1577 1579 1581 1582 1582 1581 1581 1580 1578 1576 1573 1571 1567 1564 1561 1558 1555 1553 1550 1547 1545 1542 1539 1536 1533 1531 1528 1525 1521
1548 1549 1549 1547 1546 1548 1553 1557 1562 1564 1567 1569 1571 1573 1575 1577 1578 1579 1579 1578 1578 1576 1574 1572 1569 1567 1564 1559 1557 1554 1551 1548 1546 1544 1540 1537 1534 1530 1528 1525 1523 1521 1518
1550 1551 1551 1548 1546 1547 1552 1559 1560 1562 1565 1568 1569 1572 1573 1574 1576 1577 1576 1575 1575 1573 1571 1569 1566 1563 1559 1555 1553 1550 1547 1544 1542 1538 1534 1530 1527 1525 1522 1520 1518 1516 1513
1552 1553 1553 1551 1551 1551 1554 1558 1562 1564 1567 1568 1570 1572 1573 1573 1572 1575 1575 1574 1572 1570 1568 1565 1562 1558 1555 1553 1550 1547 1544 1541 1538 1534 1529 1526 1523 1521 1518 1516 1513 1511 1509
1553 1554 1555 1556 1557 1558 1560 1562 1564 1566 1568 1569 1571 1572 1572 1573 1573 1574 1573 1571 1569 1566 1564 1561 1558 1555 1552 1550 1547 1544 1541 1538 1534 1531 1527 1524 1521 1518 1514 1511 1509 1506 1504
1554 1556 1557 1559 1560 1561 1562 1564 1565 1567 1569 1569 1571 1571 1572 1573 1573 1572 1569 1568 1566 1564 1561 1558 1556 1553 1550 1547 1544 1541 1538 1534 1531 1527 1524 1521 1518 1513 1511 1508 1505 1503 1500
1554 1557 1559 1561 1562 1563 1565 1566 1567 1568 1570 1570 1571 1572 1572 1572 1571 1570 1568 1566 1564 1561 1558 1556 1553 1550 1547 1544 1541 1538 1534 1531 1527 1523 1519 1516 1513 1509 1506 1504 1501 1499 1496
1553 1557 1560 1562 1563 1565 1566 1567 1568 1569 1570 1570 1572 1572 1571 1570 1569 1568 1566 1563 1561 1559 1557 1554 1551 1547 1544 1541 1538 1535 1531 1527 1522 1518 1514 1511 1508 1504 1500 1497 1495 1493 1491
1552 1556 1559 1562 1564 1566 1567 1568 1569 1570 1571 1571 1571 1571 1570 1569 1567 1566 1564 1562 1560 1558 1555 1553 1548 1545 1541 1537 1534 1531 1527 1522 1518 1514 1509 1506 1503 1500 1497 1492 1488 1485 1482
1552 1556 1560 1562 1565 1567 1568 1569 1570 1571 1571 1572 1571 1570 1569 1567 1566 1564 1562 1560 1558 1556 1553 1551 1547 1543 1540 1535 1531 1527 1523 1519 1514 1510 1506 1503 1499 1496 1493 1488 1484 1480 1477
1552 1556 1560 1563 1565 1567 1568 1569 1570 1571 1571 1571 1570 1568 1567 1565 1564 1562 1561 1559 1556 1554 1552 1550 1547 1543 1539 1535 1530 1525 1521 1515 1510 1506 1502 1499 1496 1492 1489 1485 1481 1476 1473
1553 1557 1560 1564 1566 1567 1568 1569 1569 1569 1570 1569 1568 1567 1566 1564 1563 1561 1560 1557 1555 1553 1550 1547 1544 1541 1538 1533 1529 1525 1519 1513 1508 1504 1500 1497 1494 1490 1487 1483 1479 1475 1470
1553 1557 1560 1564 1566 1566 1567 1568 1568 1568 1568 1567 1567 1565 1564 1563 1561 1560 1558 1555 1553 1551 1548 1544 1542 1539 1535 1532 1528 1523 1517 1512 1508 1503 1499 1496 1492 1488 1484 1480 1476 1472 1467
1552 1556 1558 1561 1564 1565 1566 1567 1567 1566 1566 1565 1565 1564 1563 1561 1560 1559 1557 1554 1552 1549 1546 1543 1540 1536 1533 1530 1525 1520 1515 1510 1506 1503 1499 1495 1491 1486 1481 1477 1473 1468 1464
1551 1554 1557 1560 1562 1564 1565 1566 1566 1565 1565 1564 1563 1562 1561 1560 1559 1558 1556 1553 1551 1548 1545 1542 1538 1535 1530 1526 1522 1517 1512 1508 1504 1500 1496 1492 1488 1484 1480 1475 1470 1466 1462
1549 1553 1556 1558 1560 1562 1563 1564 1564 1563 1563 1562 1561 1561 1560 1559 1557 1556 1554 1553 1550 1547 1544 1541 1537 1533 1529 1525 1522 1517 1512 1508 1504 1498 1494 1489 1484 1479 1475 1471 1468 1463 1459
1547 1550 1554 1556 1559 1560 1561 1561 1561 1561 1561 1560 1560 1558 1557 1557 1555 1553 1552 1551 1549 1546 1543 1540 1536 1532 1529 1526 1521 1517 1513 1508 1502 1496 1491 1487 1483 1479 1474 1470 1466 1462 1457